Погода в Пессаке

Франция     44˚48′24″N   0˚37′41″E
темп.,
°C
ветер,
м/с
пор.,
м/с
влажн.,
%
обл.,
%
осадки,
мм/ч
давл.,
гПа
погр.,
м
17 января, вс
вс1701:00+11˚з5139486 0.1 1026759
04:00+12˚з61390100 0.1 1024842
07:00+11˚сз4996100 5.1 1025533
10:00+8˚с368686 0.2 1026527
13:00+10˚с356957 0.2 1029938
16:00+9˚ссв346510 0.0 1029961
19:00+7˚св137341 0.0 1030193
22:00+5˚св117772 0.0 103122
18 января, пн
пн1801:00+4˚вюв118140 0.0 103122
04:00+3˚в11840 0.0 103022
07:00+3˚юв12880 0.0 103023
10:00+4˚юв128484 0.0 1030103
13:00+8˚юв236259 0.0 1029507
16:00+9˚вюв225726 0.0 1027640
19:00+5˚вюв247515 0.0 1027134
22:00+4˚юв24802 0.0 1026127
19 января, вт
вт1901:00+3˚ююв25835 0.0 1025144
04:00+2˚юв24841 0.0 1023111
07:00+2˚юв23841 0.0 1022100
10:00+4˚ююв36749 0.0 1021184
13:00+10˚ююв25505 0.0 1019302
16:00+12˚ю26470 0.0 1016579
19:00+7˚ююв25630 0.0 1014109
22:00+7˚ююв396559 0.0 1012174
20 января, ср
ср2001:00+6˚ююв386979 0.0 1011190
04:00+5˚ююв377995 0.0 1008179
07:00+5˚ююв377297 0.0 1006214
10:00+5˚ююв386465 0.0 1005285
13:00+12˚ю6125083 0.0 10031075
16:00+10˚ю61470100 0.4 10001238
19:00+10˚ю51478100 0.9 999834
22:00+10˚ю51373100 0.0 999776
21 января, чт
чт2101:00+10˚ююз5167673 0.0 999693
04:00+10˚ююз4138283 0.8 1000700
07:00+11˚зюз7158587 2.6 10031211
10:00+10˚юз397998 0.1 1004846
13:00+10˚ююз488599 0.2 1004593
16:00+12˚ю41577100 0.4 9991526
19:00+12˚ююз71580100 2.0 9981204
22:00+11˚з71577100 0.4 10001407